TimePST,TemperatureF,Dew PointF,Humidity,Sea Level PressureIn,VisibilityMPH,Wind Direction,Wind SpeedMPH,Gust SpeedMPH,PrecipitationIn,Events,Conditions,WindDirDegrees,DateUTC
12:54 AM,44.1,39.0,82,29.87,10.0,South,13.8,-,N/A,,Partly Cloudy,190,2012-11-18 08:54:00
1:54 AM,44.1,39.0,82,29.88,10.0,South,11.5,-,0.00,Rain,Light Rain,190,2012-11-18 09:54:00
2:54 AM,45.0,39.9,82,29.88,10.0,South,11.5,-,0.01,,Overcast,190,2012-11-18 10:54:00
3:54 AM,46.9,39.0,74,29.88,10.0,South,16.1,-,N/A,,Overcast,180,2012-11-18 11:54:00
4:54 AM,46.9,39.0,74,29.88,10.0,South,16.1,-,N/A,,Overcast,180,2012-11-18 12:54:00
5:54 AM,46.9,39.0,74,29.87,10.0,South,17.3,-,N/A,,Overcast,180,2012-11-18 13:54:00
6:54 AM,46.9,39.9,77,29.86,10.0,South,11.5,-,0.00,Rain,Light Rain,170,2012-11-18 14:54:00
7:54 AM,46.0,41.0,83,29.87,10.0,South,12.7,-,0.00,,Overcast,190,2012-11-18 15:54:00
8:54 AM,46.9,41.0,80,29.88,10.0,South,12.7,-,0.00,,Overcast,180,2012-11-18 16:54:00
9:54 AM,48.0,41.0,77,29.86,10.0,South,16.1,-,0.00,,Overcast,180,2012-11-18 17:54:00
10:54 AM,51.1,41.0,68,29.86,10.0,South,18.4,-,N/A,,Overcast,180,2012-11-18 18:54:00
11:54 AM,52.0,39.9,63,29.81,10.0,South,19.6,27.6,N/A,,Overcast,180,2012-11-18 19:54:00
12:54 PM,53.1,39.9,61,29.79,10.0,South,17.3,24.2,N/A,,Overcast,180,2012-11-18 20:54:00
1:54 PM,53.1,39.9,61,29.77,10.0,South,19.6,-,N/A,,Overcast,180,2012-11-18 21:54:00
2:54 PM,52.0,41.0,66,29.76,10.0,South,16.1,23.0,0.00,Rain,Light Rain,190,2012-11-18 22:54:00
3:54 PM,50.0,43.0,77,29.75,10.0,South,12.7,-,0.01,Rain,Light Rain,190,2012-11-18 23:54:00
4:54 PM,48.9,44.1,83,29.75,10.0,South,12.7,-,0.03,Rain,Rain,190,2012-11-19 00:54:00
5:54 PM,48.2,44.6,87,29.75,10.0,South,15.0,-,N/A,Rain,Rain,170,2012-11-19 01:54:00
6:54 PM,50.0,44.1,80,29.74,10.0,South,17.3,-,0.01,,Overcast,180,2012-11-19 02:54:00
7:54 PM,51.1,43.0,74,29.73,10.0,South,17.3,26.5,0.00,,Light Drizzle,190,2012-11-19 03:54:00
8:54 PM,51.1,44.1,77,29.74,10.0,South,16.1,25.3,0.00,Rain,Light Rain,190,2012-11-19 04:54:00
9:54 PM,53.1,43.0,69,29.71,10.0,South,24.2,31.1,0.02,,Overcast,180,2012-11-19 05:54:00
10:54 PM,53.1,43.0,69,29.71,10.0,South,24.2,34.5,0.01,,Overcast,180,2012-11-19 06:54:00
11:54 PM,52.0,46.0,80,29.74,10.0,South,20.7,25.3,0.03,Rain,Rain,180,2012-11-19 07:54:00